Southampton, United Kingdom

8:09 PM BST on September 27, 2016 (GMT +0100)
Southampton International

Weather History for EGHI - December, 2012

Change the Weather History Date:

Sunday, December 23, 2012

  Actual Average Record
Temperature  
Mean Temperature 50 °F -  
Max Temperature 53 °F 44 °F 55 °F (2004)
Min Temperature 48 °F 36 °F 24 °F (2007)
Degree Days  
Heating Degree Days 14    
Moisture  
Dew Point 47 °F    
Average Humidity 86    
Maximum Humidity 93    
Minimum Humidity 77    
Precipitation  
Precipitation 0.00 in - - ()
Sea Level Pressure  
Sea Level Pressure 29.70 in    
Wind  
Wind Speed 8 mph ()    
Max Wind Speed 13 mph    
Max Gust Speed -    
Visibility 5.9 miles    
Events      
Averages and records for this station are not official NWS values.
T = Trace of Precipitation, MM = Missing Value Source: Averaged Metar Reports

Daily Weather History Graph

Daily Weather History Graph

Search for Another Location

Airport or City:

Trip Planner

Search our weather history database for the weather conditions in past years. The results will help you decide how hot, cold, wet, or windy it might be!

Date:

Astronomy

Dec. 23, 2012 Rise Set
Actual Time 8:06 AM GMT 4:02 PM GMT
Civil Twilight 7:27 AM GMT 4:42 PM GMT
Nautical Twilight 6:44 AM GMT 5:24 PM GMT
Astronomical Twilight 6:04 AM GMT 6:05 PM GMT
Moon 12:59 PM GMT (12/23) 3:19 AM GMT (12/23)
Length of Visible Light 9h 14m
Length of Day
7h 55m
Waxing Gibbous, 80% of the Moon is Illuminated
Dec 23
Waxing Gibbous
Dec 28
Full
Jan 5
Last Quarter
Jan 11
New
Jan 18
First Quarter

Hourly Weather History & Observations

Time (GMT) Temp. Dew Point Humidity Pressure Visibility Wind Dir Wind Speed Gust Speed Precip Events Conditions
6:50 AM 51.8 °F 48.2 °F 88% 29.59 in 6.2 mi SW 11.5 mph - N/A   Scattered Clouds
7:20 AM 51.8 °F 48.2 °F 88% 29.62 in 6.2 mi SW 11.5 mph - N/A   Mostly Cloudy
7:50 AM 51.8 °F 48.2 °F 88% 29.62 in 6.2 mi SW 9.2 mph - N/A   Mostly Cloudy
8:20 AM 51.8 °F 48.2 °F 88% 29.65 in 6.2 mi WSW 9.2 mph - N/A   Scattered Clouds
8:50 AM 51.8 °F 48.2 °F 88% 29.65 in 6.2 mi WSW 9.2 mph - N/A   Scattered Clouds
9:20 AM 51.8 °F 48.2 °F 88% 29.65 in 6.2 mi WSW 8.1 mph - N/A   Light Drizzle
9:50 AM 51.8 °F 48.2 °F 88% 29.68 in 6.2 mi WSW 9.2 mph - N/A   Scattered Clouds
10:20 AM 51.8 °F 48.2 °F 88% 29.68 in 5.0 mi SW 10.4 mph - N/A   Scattered Clouds
10:50 AM 51.8 °F 48.2 °F 88% 29.68 in 5.0 mi SW 11.5 mph - N/A   Partly Cloudy
11:20 AM 51.8 °F 48.2 °F 88% 29.68 in 5.0 mi SW 10.4 mph - N/A   Partly Cloudy
11:50 AM 53.6 °F 46.4 °F 77% 29.71 in 5.0 mi WSW 11.5 mph - N/A   Scattered Clouds
12:20 PM 51.8 °F 46.4 °F 82% 29.71 in 5.0 mi SW 12.7 mph - N/A   Scattered Clouds
12:50 PM 51.8 °F 46.4 °F 82% 29.71 in 5.6 mi WSW 11.5 mph - N/A   Scattered Clouds
1:20 PM 51.8 °F 46.4 °F 82% 29.71 in 5.6 mi SW 11.5 mph - N/A   Scattered Clouds
1:50 PM 51.8 °F 46.4 °F 82% 29.68 in 5.6 mi SW 9.2 mph - N/A   Scattered Clouds
2:20 PM 51.8 °F 46.4 °F 82% 29.71 in 6.2 mi SW 10.4 mph - N/A   Mostly Cloudy
2:50 PM 51.8 °F 46.4 °F 82% 29.71 in 6.2 mi SW 9.2 mph - N/A   Mostly Cloudy
3:20 PM 51.8 °F 46.4 °F 82% 29.71 in 6.2 mi SW 10.4 mph - N/A   Mostly Cloudy
3:50 PM 50.0 °F 46.4 °F 87% 29.71 in 6.2 mi SW 9.2 mph - N/A   Scattered Clouds
4:20 PM 50.0 °F 46.4 °F 87% 29.71 in 6.2 mi SW 10.4 mph - N/A   Partly Cloudy
4:50 PM 50.0 °F 46.4 °F 87% 29.71 in 6.2 mi SW 8.1 mph - N/A   Partly Cloudy
5:20 PM 50.0 °F 46.4 °F 87% 29.71 in - WSW 3.5 mph - N/A   Clear
5:50 PM 50.0 °F 46.4 °F 87% 29.71 in - SW 5.8 mph - N/A   Clear
6:20 PM 50.0 °F 46.4 °F 87% 29.74 in - SW 6.9 mph - N/A   Clear
6:50 PM 50.0 °F 46.4 °F 87% 29.74 in - SW 5.8 mph - N/A   Clear
7:20 PM 48.2 °F 44.6 °F 87% 29.74 in - SW 5.8 mph - N/A   Clear
7:50 PM 48.2 °F 44.6 °F 87% 29.74 in - South 5.8 mph - N/A   Clear
8:20 PM 48.2 °F 44.6 °F 87% 29.74 in - Variable 2.3 mph - N/A   Clear
8:50 PM 48.2 °F 46.4 °F 93% 29.74 in 6.2 mi South 5.8 mph - N/A   Partly Cloudy
9:20 PM 48.2 °F 46.4 °F 93% 29.74 in 6.2 mi SSW 4.6 mph - N/A   Scattered Clouds
9:50 PM 48.2 °F 46.4 °F 93% 29.71 in 6.2 mi South 8.1 mph - N/A   Mostly Cloudy